AMX100A MMMY-MMGL

Flight info

Callsign AMX100A
Flight time 1h 9m
Altitude 32000
Route KERGA1A KERGA UT44 MEZCA MEZCA1B
Aircraft B738/M-SDE2E3FGHIRWXY/LB1

Departure

Time 2026-04-22 03:04
Airport Monterrey International Airport (MMMY)

Arrival

Time 2026-04-22 04:14
Airport Guadalajara International Airport (MMGL)
Time Latitude Longitude Altitude Speed Heading
2026-04-22 02:22 25.77729 -100.11166 1286 ft 0 kts 209°
2026-04-22 02:29 25.77728 -100.11166 1286 ft 0 kts 209°
2026-04-22 02:30 25.77728 -100.11167 1286 ft 0 kts 209°
2026-04-22 02:39 25.77727 -100.11167 1286 ft 0 kts 209°
2026-04-22 02:44 25.77727 -100.11168 1286 ft 0 kts 209°
2026-04-22 02:47 25.77719 -100.11168 1286 ft 3 kts 169°
2026-04-22 02:47 25.77709 -100.11151 1286 ft 2 kts 94°
2026-04-22 02:48 25.77710 -100.11133 1286 ft 2 kts 88°
2026-04-22 02:48 25.77710 -100.11131 1286 ft 0 kts 88°
2026-04-22 02:48 25.77712 -100.11114 1286 ft 10 kts 80°
2026-04-22 02:49 25.77753 -100.11059 1286 ft 13 kts 347°
2026-04-22 02:49 25.77800 -100.11095 1286 ft 2 kts 326°
2026-04-22 02:49 25.77845 -100.11128 1286 ft 6 kts 325°
2026-04-22 02:49 25.77870 -100.11155 1286 ft 0 kts 309°
2026-04-22 02:50 25.77881 -100.11170 1286 ft 0 kts 314°
2026-04-22 02:50 25.77897 -100.11190 1286 ft 6 kts 309°
2026-04-22 02:51 25.77901 -100.11195 1286 ft 0 kts 310°
2026-04-22 02:52 25.77908 -100.11204 1286 ft 0 kts 306°
2026-04-22 02:52 25.77908 -100.11205 1286 ft 0 kts 306°
2026-04-22 02:54 25.77911 -100.11209 1286 ft 5 kts 306°
2026-04-22 02:54 25.77924 -100.11232 1286 ft 2 kts 300°
2026-04-22 02:55 25.77958 -100.11295 1286 ft 12 kts 301°
2026-04-22 02:55 25.78031 -100.11428 1286 ft 25 kts 301°
2026-04-22 02:55 25.78114 -100.11584 1286 ft 21 kts 300°
2026-04-22 02:55 25.78176 -100.11699 1286 ft 5 kts 307°
2026-04-22 02:56 25.78176 -100.11700 1286 ft 0 kts 307°
2026-04-22 02:56 25.78184 -100.11711 1286 ft 2 kts 301°
2026-04-22 02:56 25.78191 -100.11724 1286 ft 0 kts 302°
2026-04-22 02:57 25.78192 -100.11726 1286 ft 3 kts 302°
2026-04-22 02:57 25.78199 -100.11739 1286 ft 0 kts 303°
2026-04-22 02:57 25.78200 -100.11739 1286 ft 0 kts 303°
2026-04-22 02:58 25.78205 -100.11748 1286 ft 6 kts 303°
2026-04-22 02:58 25.78245 -100.11799 1286 ft 6 kts 333°
2026-04-22 02:58 25.78263 -100.11802 1286 ft 0 kts
2026-04-22 02:59 25.78291 -100.11797 1286 ft 5 kts 17°
2026-04-22 02:59 25.78319 -100.11780 1286 ft 0 kts 30°
2026-04-22 03:01 25.78347 -100.11762 1286 ft 8 kts 30°
2026-04-22 03:01 25.78366 -100.11729 1286 ft 0 kts 108°
2026-04-22 03:03 25.78355 -100.11700 1286 ft 25 kts 114°
2026-04-22 03:03 25.78131 -100.11263 1286 ft 103 kts 118°
2026-04-22 03:04 25.77661 -100.10349 1344 ft 160 kts 121°
2026-04-22 03:04 25.76995 -100.09296 1945 ft 182 kts 129°
2026-04-22 03:04 25.76352 -100.08074 2867 ft 180 kts 111°
2026-04-22 03:04 25.75805 -100.06843 3737 ft 180 kts 120°
2026-04-22 03:05 25.75116 -100.05622 4300 ft 193 kts 123°
2026-04-22 03:05 25.74365 -100.04324 4862 ft 206 kts 123°
2026-04-22 03:05 25.73585 -100.02948 5409 ft 216 kts 122°
2026-04-22 03:05 25.72762 -100.01501 5950 ft 227 kts 127°
2026-04-22 03:06 25.71509 -100.00410 6468 ft 239 kts 156°
2026-04-22 03:06 25.69875 -99.99970 6998 ft 247 kts 176°
2026-04-22 03:06 25.68115 -99.99948 7488 ft 261 kts 181°
2026-04-22 03:06 25.66248 -99.99964 8042 ft 274 kts 180°
2026-04-22 03:07 25.64288 -99.99978 8573 ft 289 kts 180°
2026-04-22 03:07 25.62240 -99.99994 9104 ft 302 kts 182°
2026-04-22 03:07 25.60122 -100.00011 9634 ft 304 kts 185°
2026-04-22 03:07 25.58050 -100.00030 10157 ft 295 kts 186°
2026-04-22 03:08 25.56037 -100.00048 10684 ft 287 kts 186°
2026-04-22 03:08 25.54036 -100.00066 11208 ft 291 kts 186°
2026-04-22 03:08 25.51976 -100.00082 11739 ft 295 kts 186°
2026-04-22 03:08 25.49907 -100.00098 12268 ft 298 kts 187°
2026-04-22 03:09 25.47838 -100.00115 12790 ft 304 kts 187°
2026-04-22 03:09 25.45688 -100.00136 13302 ft 315 kts 187°
2026-04-22 03:09 25.43445 -100.00157 13811 ft 326 kts 187°
2026-04-22 03:09 25.41144 -100.00176 14314 ft 337 kts 187°
2026-04-22 03:10 25.38762 -100.00195 14818 ft 347 kts 187°
2026-04-22 03:10 25.36313 -100.00213 15323 ft 356 kts 187°
2026-04-22 03:10 25.33805 -100.00230 15827 ft 364 kts 187°
2026-04-22 03:10 25.31273 -100.00246 16324 ft 371 kts 187°
2026-04-22 03:11 25.28648 -100.00264 16830 ft 377 kts 187°
2026-04-22 03:11 25.25996 -100.00281 17333 ft 383 kts 187°
2026-04-22 03:11 25.23310 -100.00299 17836 ft 388 kts 187°
2026-04-22 03:11 25.20602 -100.00317 18337 ft 392 kts 187°
2026-04-22 03:12 25.17842 -100.00336 18841 ft 396 kts 187°
2026-04-22 03:12 25.12286 -100.00376 19844 ft 402 kts 188°
2026-04-22 03:12 25.09474 -100.00396 20346 ft 405 kts 188°
2026-04-22 03:13 25.06656 -100.00416 20847 ft 406 kts 188°
2026-04-22 03:13 25.03817 -100.00437 21348 ft 408 kts 188°
2026-04-22 03:13 25.00974 -100.00457 21849 ft 409 kts 188°
2026-04-22 03:13 24.98116 -100.00514 22352 ft 407 kts 193°
2026-04-22 03:14 24.95399 -100.01024 22847 ft 397 kts 204°
2026-04-22 03:14 24.92851 -100.02096 23349 ft 388 kts 214°
2026-04-22 03:14 24.90443 -100.03496 23855 ft 385 kts 217°
2026-04-22 03:14 24.88139 -100.04920 24349 ft 384 kts 218°
2026-04-22 03:15 24.85815 -100.06379 24850 ft 384 kts 218°
2026-04-22 03:15 24.83510 -100.07841 25349 ft 383 kts 218°
2026-04-22 03:15 24.81201 -100.09314 25851 ft 382 kts 218°
2026-04-22 03:15 24.78926 -100.10772 26348 ft 380 kts 219°
2026-04-22 03:16 24.76637 -100.12244 26851 ft 378 kts 219°
2026-04-22 03:16 24.74365 -100.13708 27352 ft 377 kts 219°
2026-04-22 03:16 24.72117 -100.15159 27851 ft 375 kts 219°
2026-04-22 03:16 24.70596 -100.16142 28190 ft 373 kts 219°
2026-04-22 03:17 24.67651 -100.18048 28850 ft 370 kts 219°
2026-04-22 03:17 24.65432 -100.19485 29352 ft 368 kts 219°
2026-04-22 03:17 24.63972 -100.20435 29683 ft 366 kts 219°
2026-04-22 03:17 24.61787 -100.21858 30184 ft 363 kts 219°
2026-04-22 03:18 24.59615 -100.23272 30684 ft 361 kts 219°
2026-04-22 03:18 24.57471 -100.24669 31183 ft 358 kts 219°
2026-04-22 03:18 24.55330 -100.26062 31684 ft 354 kts 219°
2026-04-22 03:18 24.53207 -100.27442 32015 ft 357 kts 219°
2026-04-22 03:19 24.48828 -100.30282 32085 ft 375 kts 219°
2026-04-22 03:19 24.44217 -100.33267 32079 ft 393 kts 218°
2026-04-22 03:20 24.39426 -100.36365 32098 ft 409 kts 217°
2026-04-22 03:20 24.34437 -100.39587 32115 ft 422 kts 217°
2026-04-22 03:21 24.29305 -100.42895 32195 ft 431 kts 217°
2026-04-22 03:21 24.26739 -100.44550 32695 ft 425 kts 217°
2026-04-22 03:21 24.24235 -100.46165 33187 ft 419 kts 217°
2026-04-22 03:22 24.21712 -100.47794 33690 ft 413 kts 217°
2026-04-22 03:22 24.19253 -100.49383 34187 ft 408 kts 218°
2026-04-22 03:22 24.16855 -100.50934 34678 ft 403 kts 218°
2026-04-22 03:22 24.14455 -100.52488 35175 ft 397 kts 218°
2026-04-22 03:23 24.12095 -100.54018 35670 ft 392 kts 218°
2026-04-22 03:23 24.09751 -100.55540 36048 ft 390 kts 218°
2026-04-22 03:23 24.05020 -100.58597 36122 ft 400 kts 218°
2026-04-22 03:24 24.00158 -100.61732 36142 ft 410 kts 218°
2026-04-22 03:24 23.95200 -100.64922 36140 ft 419 kts 217°
2026-04-22 03:25 23.90108 -100.68190 36147 ft 430 kts 217°
2026-04-22 03:25 23.84887 -100.71514 36162 ft 441 kts 217°
2026-04-22 03:26 23.79521 -100.74923 36160 ft 450 kts 216°
2026-04-22 03:26 23.74099 -100.78382 36154 ft 451 kts 217°
2026-04-22 03:27 23.68692 -100.81832 36151 ft 449 kts 217°
2026-04-22 03:27 23.63276 -100.85277 36149 ft 450 kts 217°
2026-04-22 03:28 23.57870 -100.88710 36145 ft 450 kts 217°
2026-04-22 03:28 23.52464 -100.92151 36152 ft 448 kts 217°
2026-04-22 03:29 23.47339 -100.95945 36156 ft 445 kts 222°
2026-04-22 03:29 23.42390 -100.99926 36151 ft 444 kts 222°
2026-04-22 03:30 23.37372 -101.03943 36143 ft 445 kts 222°
2026-04-22 03:30 23.32406 -101.07892 36144 ft 444 kts 222°
2026-04-22 03:31 23.27421 -101.11841 36142 ft 444 kts 222°
2026-04-22 03:31 23.22421 -101.15795 36141 ft 444 kts 222°
2026-04-22 03:32 23.17384 -101.19775 36195 ft 450 kts 223°
2026-04-22 03:32 23.12282 -101.23814 36235 ft 458 kts 223°
2026-04-22 03:33 23.07075 -101.27923 36255 ft 465 kts 223°
2026-04-22 03:33 23.01876 -101.32025 36266 ft 464 kts 223°
2026-04-22 03:34 22.96677 -101.36123 36269 ft 460 kts 223°
2026-04-22 03:34 22.91495 -101.40197 36274 ft 461 kts 223°
2026-04-22 03:35 22.86271 -101.44300 36276 ft 462 kts 223°
2026-04-22 03:35 22.81056 -101.48394 36276 ft 460 kts 223°
2026-04-22 03:36 22.75894 -101.52439 36283 ft 462 kts 223°
2026-04-22 03:36 22.70636 -101.56555 36290 ft 464 kts 223°
2026-04-22 03:37 22.65445 -101.60619 36290 ft 461 kts 223°
2026-04-22 03:37 22.60268 -101.64677 36284 ft 456 kts 222°
2026-04-22 03:38 22.55145 -101.68672 36289 ft 456 kts 222°
2026-04-22 03:38 22.50009 -101.72668 36301 ft 457 kts 222°
2026-04-22 03:39 22.44857 -101.76679 36316 ft 455 kts 221°
2026-04-22 03:39 22.39738 -101.80663 36319 ft 455 kts 221°
2026-04-22 03:40 22.34579 -101.84690 36319 ft 455 kts 221°
2026-04-22 03:40 22.29485 -101.88654 36318 ft 451 kts 220°
2026-04-22 03:41 22.24372 -101.92614 36319 ft 453 kts 220°
2026-04-22 03:41 22.19249 -101.96588 36319 ft 452 kts 220°
2026-04-22 03:42 22.14132 -102.00554 36319 ft 453 kts 220°
2026-04-22 03:42 22.09038 -102.04493 36319 ft 454 kts 220°
2026-04-22 03:43 22.03878 -102.08475 36319 ft 455 kts 220°
2026-04-22 03:43 21.98751 -102.12431 36318 ft 454 kts 220°
2026-04-22 03:44 21.93643 -102.16308 35886 ft 444 kts 218°
2026-04-22 03:44 21.91048 -102.18138 35381 ft 439 kts 217°
2026-04-22 03:44 21.88498 -102.19886 34884 ft 434 kts 217°
2026-04-22 03:45 21.86058 -102.21552 34403 ft 430 kts 217°
2026-04-22 03:45 21.83445 -102.23349 33883 ft 428 kts 218°
2026-04-22 03:45 21.80941 -102.25079 33384 ft 428 kts 218°
2026-04-22 03:45 21.78456 -102.26799 32888 ft 428 kts 218°
2026-04-22 03:46 21.75948 -102.28539 32387 ft 429 kts 218°
2026-04-22 03:46 21.73445 -102.30279 31888 ft 429 kts 218°
2026-04-22 03:46 21.70932 -102.32046 31385 ft 430 kts 220°
2026-04-22 03:46 21.68545 -102.33953 30889 ft 431 kts 223°
2026-04-22 03:47 21.66202 -102.35956 30390 ft 434 kts 223°
2026-04-22 03:47 21.63823 -102.37995 29887 ft 436 kts 223°
2026-04-22 03:47 21.61430 -102.40034 29385 ft 439 kts 223°
2026-04-22 03:47 21.59007 -102.42089 28882 ft 442 kts 223°
2026-04-22 03:48 21.56595 -102.44134 28384 ft 445 kts 223°
2026-04-22 03:48 21.54168 -102.46192 27887 ft 448 kts 223°
2026-04-22 03:48 21.51695 -102.48282 27382 ft 450 kts 223°
2026-04-22 03:48 21.49211 -102.50375 26880 ft 452 kts 223°
2026-04-22 03:49 21.46765 -102.52434 26386 ft 454 kts 222°
2026-04-22 03:49 21.44263 -102.54537 25885 ft 458 kts 222°
2026-04-22 03:49 21.41711 -102.56680 25376 ft 458 kts 222°
2026-04-22 03:49 21.39205 -102.58784 24875 ft 455 kts 222°
2026-04-22 03:50 21.36743 -102.60850 24458 ft 452 kts 222°
2026-04-22 03:50 21.34287 -102.62911 24404 ft 451 kts 222°
2026-04-22 03:50 21.31802 -102.64998 24336 ft 451 kts 222°
2026-04-22 03:50 21.29333 -102.67071 24325 ft 450 kts 222°
2026-04-22 03:51 21.26868 -102.69140 24321 ft 450 kts 222°
2026-04-22 03:51 21.24420 -102.71192 24319 ft 450 kts 222°
2026-04-22 03:51 21.21954 -102.73259 24319 ft 450 kts 222°
2026-04-22 03:51 21.19547 -102.75273 24319 ft 450 kts 222°
2026-04-22 03:52 21.17041 -102.77363 24319 ft 453 kts 222°
2026-04-22 03:52 21.14455 -102.79252 24304 ft 453 kts 212°
2026-04-22 03:52 21.11525 -102.80396 24310 ft 449 kts 197°
2026-04-22 03:52 21.08400 -102.80745 24319 ft 449 kts 185°
2026-04-22 03:53 21.05289 -102.80677 24318 ft 447 kts 182°
2026-04-22 03:53 21.02186 -102.80409 24318 ft 449 kts 177°
2026-04-22 03:53 20.99077 -102.79924 24140 ft 450 kts 175°
2026-04-22 03:53 20.95988 -102.79384 23651 ft 445 kts 175°
2026-04-22 03:54 20.92954 -102.78891 23177 ft 440 kts 175°
2026-04-22 03:54 20.89975 -102.78411 22706 ft 435 kts 175°
2026-04-22 03:54 20.86975 -102.77930 22226 ft 429 kts 175°
2026-04-22 03:54 20.84082 -102.77462 21757 ft 425 kts 175°
2026-04-22 03:55 20.81162 -102.76994 21279 ft 420 kts 175°
2026-04-22 03:55 20.78298 -102.76534 20806 ft 416 kts 175°
2026-04-22 03:55 20.75449 -102.76073 20327 ft 412 kts 174°
2026-04-22 03:55 20.72649 -102.75311 19844 ft 412 kts 164°
2026-04-22 03:56 20.70069 -102.74030 19371 ft 411 kts 153°
2026-04-22 03:56 20.67656 -102.72418 18897 ft 408 kts 148°
2026-04-22 03:56 20.65357 -102.70668 18419 ft 403 kts 146°
2026-04-22 03:56 20.63140 -102.68874 17940 ft 393 kts 145°
2026-04-22 03:57 20.60996 -102.67143 17466 ft 383 kts 145°
2026-04-22 03:57 20.58881 -102.65449 16780 ft 380 kts 145°
2026-04-22 03:57 20.56715 -102.63794 15767 ft 385 kts 150°
2026-04-22 03:57 20.54303 -102.62543 14765 ft 386 kts 161°
2026-04-22 03:58 20.51683 -102.61777 13834 ft 386 kts 170°
2026-04-22 03:58 20.49108 -102.61357 13412 ft 372 kts 174°
2026-04-22 03:58 20.46636 -102.61078 13307 ft 351 kts 175°
2026-04-22 03:58 20.44258 -102.60813 13193 ft 331 kts 175°
2026-04-22 03:59 20.42127 -102.60561 13287 ft 282 kts 176°
2026-04-22 03:59 20.40309 -102.60339 13061 ft 245 kts 176°
2026-04-22 03:59 20.38713 -102.60140 12937 ft 222 kts 176°
2026-04-22 03:59 20.37212 -102.59951 12882 ft 216 kts 177°
2026-04-22 04:00 20.35707 -102.59945 12873 ft 216 kts 197°
2026-04-22 04:00 20.34431 -102.60736 12898 ft 215 kts 228°
2026-04-22 04:00 20.33733 -102.62120 12731 ft 215 kts 258°
2026-04-22 04:00 20.33666 -102.63702 12244 ft 215 kts 277°
2026-04-22 04:01 20.33915 -102.65263 11746 ft 212 kts 281°
2026-04-22 04:01 20.34169 -102.66807 11245 ft 210 kts 282°
2026-04-22 04:01 20.34422 -102.68317 10749 ft 209 kts 282°
2026-04-22 04:01 20.34670 -102.69810 10253 ft 205 kts 282°
2026-04-22 04:02 20.34915 -102.71282 9756 ft 202 kts 281°
2026-04-22 04:02 20.35158 -102.72752 9257 ft 200 kts 279°
2026-04-22 04:02 20.35393 -102.74187 9026 ft 195 kts 279°
2026-04-22 04:02 20.35626 -102.75613 9017 ft 198 kts 279°
2026-04-22 04:03 20.35865 -102.77080 9027 ft 204 kts 279°
2026-04-22 04:03 20.36107 -102.78578 9021 ft 204 kts 279°
2026-04-22 04:03 20.36269 -102.79577 9017 ft 203 kts 279°
2026-04-22 04:03 20.36511 -102.81072 9019 ft 204 kts 279°
2026-04-22 04:04 20.36746 -102.82542 9019 ft 205 kts 279°
2026-04-22 04:04 20.37066 -102.84525 9018 ft 204 kts 279°
2026-04-22 04:04 20.37227 -102.85530 9018 ft 203 kts 279°
2026-04-22 04:04 20.37464 -102.87010 9021 ft 206 kts 278°
2026-04-22 04:05 20.37705 -102.88517 9017 ft 205 kts 278°
2026-04-22 04:05 20.37946 -102.90029 8995 ft 208 kts 279°
2026-04-22 04:05 20.38194 -102.91569 9013 ft 213 kts 279°
2026-04-22 04:05 20.38443 -102.93122 9012 ft 212 kts 279°
2026-04-22 04:06 20.38688 -102.94651 9011 ft 208 kts 278°
2026-04-22 04:06 20.38925 -102.96134 8995 ft 200 kts 278°
2026-04-22 04:06 20.39162 -102.97611 8978 ft 204 kts 279°
2026-04-22 04:06 20.39404 -102.99118 9002 ft 211 kts 280°
2026-04-22 04:07 20.39651 -103.00665 9003 ft 211 kts 280°
2026-04-22 04:07 20.39988 -103.02161 8994 ft 209 kts 291°
2026-04-22 04:07 20.40559 -103.03633 8964 ft 213 kts 296°
2026-04-22 04:07 20.41181 -103.05051 8684 ft 209 kts 297°
2026-04-22 04:08 20.41762 -103.06379 8600 ft 189 kts 297°
2026-04-22 04:08 20.42283 -103.07588 8618 ft 175 kts 297°
2026-04-22 04:08 20.42784 -103.08762 8642 ft 175 kts 298°
2026-04-22 04:08 20.43288 -103.09953 8612 ft 178 kts 296°
2026-04-22 04:09 20.43800 -103.11169 8386 ft 177 kts 295°
2026-04-22 04:09 20.44302 -103.12362 8158 ft 175 kts 295°
2026-04-22 04:09 20.44802 -103.13548 7940 ft 175 kts 295°
2026-04-22 04:09 20.45296 -103.14724 7728 ft 176 kts 296°
2026-04-22 04:10 20.45790 -103.15899 7530 ft 168 kts 297°
2026-04-22 04:10 20.46251 -103.16997 7303 ft 162 kts 298°
2026-04-22 04:10 20.46707 -103.18078 7106 ft 157 kts 300°
2026-04-22 04:10 20.47152 -103.19134 6915 ft 155 kts 301°
2026-04-22 04:11 20.47592 -103.20180 6727 ft 154 kts 301°
2026-04-22 04:11 20.48029 -103.21220 6539 ft 153 kts 300°
2026-04-22 04:11 20.48463 -103.22254 6348 ft 151 kts 300°
2026-04-22 04:11 20.48890 -103.23271 6162 ft 151 kts 300°
2026-04-22 04:12 20.49316 -103.24284 5977 ft 151 kts 301°
2026-04-22 04:12 20.49748 -103.25313 5788 ft 152 kts 302°
2026-04-22 04:12 20.50179 -103.26339 5601 ft 152 kts 302°
2026-04-22 04:12 20.50609 -103.27362 5414 ft 150 kts 302°
2026-04-22 04:13 20.51033 -103.28373 5229 ft 149 kts 302°
2026-04-22 04:13 20.51458 -103.29384 5049 ft 148 kts 302°
2026-04-22 04:13 20.51871 -103.30332 5024 ft 122 kts 305°
2026-04-22 04:13 20.52112 -103.30945 5024 ft 74 kts 304°
2026-04-22 04:14 20.52247 -103.31054 5024 ft 12 kts 14°
2026-04-22 04:14 20.52322 -103.31025 5024 ft 9 kts 35°
2026-04-22 04:14 20.52343 -103.31005 5024 ft 0 kts 41°
2026-04-22 04:15 20.52403 -103.30956 5024 ft 16 kts 52°
2026-04-22 04:15 20.52397 -103.30850 5024 ft 0 kts 115°
2026-04-22 04:15 20.52396 -103.30850 5024 ft 0 kts 115°
2026-04-22 04:16 20.52350 -103.30699 5024 ft 13 kts 117°
2026-04-22 04:16 20.52307 -103.30628 5024 ft 12 kts 120°
2026-04-22 04:17 20.52253 -103.30523 5024 ft 18 kts 116°
2026-04-22 04:17 20.52218 -103.30415 5024 ft 12 kts 85°
2026-04-22 04:17 20.52267 -103.30359 5024 ft 15 kts 33°
2026-04-22 04:17 20.52380 -103.30273 5024 ft 20 kts 36°
2026-04-22 04:18 20.52474 -103.30197 5024 ft 12 kts 25°
2026-04-22 04:18 20.52483 -103.30192 5024 ft 0 kts 26°